Location: Newark
(47.2667°N, 0.8333°E)
Time: 20:03:45
(UTC+00:00)

ISS - Visible Passes

Search period start: 29 January 2020 00:00
Search period end: 08 February 2020 00:00
Orbit: 416 x 423 km, 51.6° (Epoch: 30 January)

Date Brightness Start Highest point End Pass type
(mag) Time Alt. Az. Time Alt. Az. Time Alt. Az.
29 Jan -2.8 18:16:35 10° WNW 18:19:46 38° N 18:21:02 27° NE visible
29 Jan -0.4 19:53:38 10° WNW 19:54:00 12° WNW 19:54:00 12° WNW visible
30 Jan -2.9 17:28:52 10° W 17:32:06 41° N 17:35:20 10° ENE visible
30 Jan -2.4 19:06:03 10° WNW 19:08:24 34° NNW 19:08:24 34° NNW visible
31 Jan -3.0 18:18:26 10° WNW 18:21:40 39° N 18:22:49 29° NE visible
31 Jan -0.5 19:55:18 10° WNW 19:55:47 14° WNW 19:55:47 14° WNW visible
01 Feb -2.9 17:30:46 10° WNW 17:33:57 37° N 17:37:09 10° ENE visible
01 Feb -2.9 19:07:42 10° WNW 19:10:15 46° NW 19:10:15 46° NW visible
02 Feb -3.5 18:20:06 10° WNW 18:23:26 54° NNE 18:24:45 31° E visible
02 Feb -0.6 19:57:02 10° WNW 19:57:43 15° W 19:57:43 15° W visible
03 Feb -3.2 17:32:29 10° WNW 17:35:46 44° NNE 17:39:02 10° E visible
03 Feb -3.1 19:09:20 10° WNW 19:12:18 53° WSW 19:12:18 53° WSW visible
04 Feb -3.8 18:21:41 10° WNW 18:25:04 84° SSW 18:26:59 24° ESE visible
04 Feb -0.5 19:59:17 10° W 19:59:58 13° WSW 19:59:58 13° WSW visible
05 Feb -3.7 17:34:02 10° WNW 17:37:26 71° NNE 17:40:48 10° ESE visible
05 Feb -1.8 19:11:11 10° W 19:14:00 25° SW 19:14:47 22° SSW visible
06 Feb -2.4 18:23:20 10° WNW 18:26:29 37° SW 18:29:39 10° SSE visible
07 Feb -3.1 17:35:35 10° WNW 17:38:55 57° SSW 17:42:14 10° SE visible
07 Feb -0.5 19:14:40 10° SW 19:15:06 10° SW 19:15:32 10° SW visible
